#timestamp,LO_Frequency,Hit,StdDev 
1620774015.1,286047000.5,N
1620774016.0,286047000.5,N
1620774035.8,286046999.8,N
1620774055.6,286047000.9,N
1620774075.5,286047002.7,Y
1620774095.3,286046999.8,P
1620774115.2,286047002.8,P
1620774135.0,286046999.9,N
1620774135.9,286046999.9,N
1620774155.7,286046999.8,N
1620774175.6,286046999.7,N
1620774195.4,286047000.2,N
1620774215.3,286047001.1,N
1620774235.1,286046998.1,N
1620774255.8,286046998.3,N
1620774275.7,286046998.2,N
1620774295.5,286046999.1,N
1620774315.4,286046998.5,N
1620774335.2,286046996.5,N
1620774355.0,286046998.5,N
1620774355.9,286046998.5,N
1620774375.8,286046999.1,N
1620774395.6,286047001.1,N
1620774415.4,286047000.2,N
1620774435.3,286047002.4,N
1620774455.1,286047004.4,Y
1620774475.9,286047003.6,P
1620774495.7,286047003.6,N
1620774515.5,286047006.0,P
1620774535.4,286047003.1,N
1620774555.2,286047004.1,N
1620774575.0,286047003.3,N
1620774575.9,286047003.3,N
1620774595.8,286047005.6,Y
1620774615.6,286046999.9,P
1620774635.5,286047002.8,N
1620774655.3,286047002.0,N
1620774675.1,286047001.8,N
1620774695.9,286047001.3,N
1620774715.7,286047004.0,Y
1620774735.6,286047000.6,P
1620774755.4,286047000.1,N
1620774775.2,286047000.7,N
1620774795.1,286047000.9,N
1620774796.0,286047000.9,N
1620774815.8,286047001.2,N
1620774835.6,286047000.9,N
1620774855.5,286047000.0,N
1620774875.3,286047001.8,Y
1620774895.2,286047002.7,P
1620774915.9,286047002.1,N
1620774935.7,286047004.2,P
1620774955.6,286047003.0,N
1620774975.4,286047003.0,N
1620774995.3,286047003.2,Y
1620775015.1,286047000.5,P
1620775016.0,286047000.5,N
1620775035.8,286046998.2,N
1620775055.7,286046999.2,N
1620775075.5,286047001.1,N
1620775095.3,286047000.8,N
1620775115.2,286046999.7,N
1620775135.0,286047004.4,Y
1620775135.9,286047004.4,P
1620775155.8,286047003.7,N
1620775175.6,286047005.9,P
1620775195.4,286047005.0,N
1620775215.3,286047003.7,N
1620775235.1,286047005.5,Y
1620775255.9,286047002.4,P
1620775275.7,286047002.5,P
1620775295.5,286047000.4,N
1620775315.4,286046998.8,N
1620775335.2,286046998.8,N
1620775355.0,286046998.4,N
1620775355.9,286046998.4,N
1620775375.8,286046998.3,N
1620775395.6,286046998.4,N
1620775415.5,286046999.3,N
1620775435.3,286046999.5,N
1620775455.1,286047000.1,N
1620775475.9,286046999.9,N
1620775495.7,286047000.2,N
1620775515.5,286047002.5,N
1620775535.4,286047002.7,N
1620775555.2,286047000.7,N
1620775575.1,286046998.9,N
1620775576.0,286046998.9,N
1620775595.8,286047000.9,N
1620775615.6,286047000.5,N
1620775635.5,286046998.2,N
1620775655.3,286046997.7,N
1620775675.2,286046996.6,N
1620775695.9,286046998.7,N
1620775715.7,286046998.7,N
1620775735.6,286046998.5,N
1620775755.4,286046996.7,N
1620775775.2,286046996.7,N
1620775795.1,286046998.1,N
1620775796.0,286046998.1,N
1620775815.8,286047002.7,N
1620775835.7,286047002.7,N
1620775855.5,286047000.2,N
1620775875.3,286047000.0,N
1620775895.2,286046998.7,N
1620775915.0,286046998.6,N
1620775915.9,286046998.6,N
1620775935.8,286047002.7,N
1620775955.6,286047001.8,N
1620775975.4,286047004.4,N
1620775995.3,286047002.1,N
1620776015.1,286047001.6,N
1620776035.8,286047001.5,N
1620776055.7,286047001.5,N
1620776075.5,286047003.5,N
1620776095.4,286047003.8,N
1620776115.2,286047002.2,N
1620776135.0,286047003.2,N
1620776135.9,286047003.2,N
1620776155.8,286047005.6,N
1620776175.6,286047002.9,N
1620776195.4,286047003.4,N
1620776215.3,286047003.3,N
1620776235.1,286047002.9,N
1620776255.9,286047005.2,N
1620776275.7,286047003.1,N
1620776295.5,286047002.9,N
1620776315.4,286047005.3,N
1620776335.2,286047005.4,N
1620776355.1,286047003.5,N
1620776356.0,286047003.5,N
1620776375.8,286047003.8,N
1620776395.6,286047001.8,N
1620776415.5,286047003.5,N
1620776435.3,286047004.2,N
1620776455.1,286047003.9,N
1620776475.9,286047004.2,N
1620776495.7,286047003.0,N
1620776515.6,286047006.0,Y
1620776535.4,286047002.6,P
1620776555.2,286047001.5,P
1620776575.1,286046999.9,N
1620776576.0,286046999.9,N
1620776595.8,286047002.4,N
1620776615.7,286047000.3,N
1620776635.5,286047002.4,N
1620776655.3,286047001.9,N
1620776675.2,286047000.2,N
1620776695.0,286047000.7,N
1620776695.9,286047000.7,N
1620776715.7,286047001.2,N
1620776735.6,286047000.5,N
1620776755.4,286047000.7,N
1620776775.3,286047002.6,N
1620776795.1,286047000.4,N
1620776815.8,286047000.5,N
1620776835.7,286047001.0,N
1620776855.5,286047002.2,N
1620776875.4,286047003.8,Y
1620776895.2,286047002.2,P
1620776915.0,286047001.6,P
1620776915.9,286047001.6,P
1620776935.8,286047002.6,Y
1620776955.6,286047000.6,P
1620776975.5,286046999.9,N
1620776995.3,286047000.4,N
1620777015.1,286047000.7,N
1620777035.9,286047000.7,N
1620777085.7,286046998.1,E
1620777095.7,286047002.8,N
1620777115.5,286047003.7,P
1620777135.3,286047001.4,P
1620777155.2,286047001.5,N
1620777175.0,286047002.0,N
1620777175.9,286047002.0,N
1620777195.8,286047004.2,Y
1620777215.6,286046999.9,P
1620777235.4,286047000.0,N
1620777255.3,286047000.3,N
1620777275.1,286046998.2,N
1620777295.8,286047000.7,N
1620777315.7,286046998.1,N
1620777335.5,286047000.3,N
1620777355.4,286046999.9,N
1620777375.2,286047002.7,N
1620777395.0,286047002.1,N
1620777395.9,286047002.1,N
1620777415.8,286047002.6,N
1620777435.6,286046999.8,N
1620777455.5,286047002.5,N
1620777475.3,286047002.2,N
1620777495.1,286046999.9,N
1620777515.9,286047000.2,N
1620777535.7,286046999.7,N
1620777555.5,286047001.7,N
1620777575.4,286047004.2,Y
1620777595.2,286047001.6,P
